Location: Cork
(51.8990°N, 8.4960°W)
Time: 12:27:54
(UTC+00:00)

Iridium 66 - Visible Passes

Search period start: 07 December 2016 00:00
Search period end: 17 December 2016 00:00
Orbit: 776 x 779 km, 86.4° (Epoch: 06 December)

Date Brightness Start Highest point End Pass type
(mag) Time Alt. Az. Time Alt. Az. Time Alt. Az.
07 Dec 8.6 17:35:16 10° WSW 17:38:37 17° WNW 17:42:00 10° NNW visible
08 Dec 8.1 17:00:20 10° SW 17:04:43 27° WNW 17:09:07 10° NNW visible
10 Dec 8.7 17:36:45 10° W 17:39:02 13° WNW 17:41:20 10° NW visible
11 Dec 8.4 17:01:12 10° WSW 17:05:02 20° WNW 17:08:54 10° NNW visible
14 Dec 8.5 17:02:22 10° W 17:05:24 15° WNW 17:08:28 10° NNW visible
